Flag for Sudan Weather past 2 weeks in Kassala, Sudan

Now
95 °F

Sunny.


Feels Like: 90 °F
Forecast: 76 / 107 °F
Wind: 15 mph from North

Location: Khartoum Airport

Current Time: Apr 26, 2015 at 1:28:19 PM

Latest Report: Apr 26, 2015 at 1:00 PM


Visibility: 10 mi

Pressure: 29.83 "Hg

Humidity: 5%

Dew point: 14 °F

Location of KassalaLocation

Historic Weather in Kassala — Graph

°F

Kassala temperature yesterday

Maximum temperature yesterday: 100 °F (at 4:00 PM)
Minimum temperature yesterday: 75 °F (at 7:00 AM)
Average temperature yesterday: 88 °F

Past Weeks' High & Low Weather Summary

 TemperatureHumidityPressure
High109 °F (Apr 23, 12:00 AM)44% (Apr 12, 11:00 PM)30.12 "Hg (Apr 12, 11:00 PM)
Low64 °F (Apr 12, 7:00 AM)3% (Apr 16, 4:00 PM)29.68 "Hg (Apr 11, 7:30 PM)
Average85 °F9%29.90 "Hg
* Reported Apr 11 12:00 Noon — Apr 26 12:00 Noon, Kassala, Weather by CustomWeather, © 2015

Note: Actual official high and low records may vary slightly from our data, if they occured in-between our weather recording intervals... More about our weather records

Advertising

Kassala weather history for previous 24 hours

 ConditionsComfort  
Time TempWeatherWind HumidityBarometerVisibility
12:00 PM
Sun, Apr 26
91 °FSunny.22 mph7%29.86 "Hg10 mi
11:30 AMN/ASunny.10 mphN/A29.86 "Hg10 mi
10:30 AMN/ASunny.13 mphN/A29.86 "Hg10 mi
10:00 AM86 °FSunny.14 mph7%29.86 "Hg10 mi
9:30 AMN/ASunny.14 mphN/A29.86 "Hg10 mi
9:00 AM81 °FSunny.15 mph7%29.86 "Hg10 mi
8:30 AMN/ASunny.13 mphN/A29.86 "Hg10 mi
8:00 AM77 °FSunny.13 mph8%29.86 "Hg10 mi
7:30 AMN/ASunny.12 mphN/A29.83 "Hg10 mi
7:00 AM75 °FSunny.13 mph7%29.83 "Hg10 mi
6:30 AMN/ASunny.13 mphN/A29.83 "Hg10 mi
3:30 AMN/AClear.14 mphN/A29.80 "Hg10 mi
3:00 AM81 °FClear.15 mph7%29.83 "Hg10 mi
2:30 AMN/AClear.15 mphN/A29.83 "Hg10 mi
2:00 AM84 °FClear.18 mph7%29.83 "Hg10 mi
1:00 AM86 °FClear.16 mph9%29.86 "Hg10 mi
12:00 AM86 °FClear.12 mph9%29.86 "Hg10 mi
11:30 PM
Sat, Apr 25
N/AClear.13 mphN/A29.86 "Hg10 mi
11:00 PMN/AClear.12 mphN/A29.86 "Hg10 mi
10:30 PMN/AClear.12 mphN/A29.86 "Hg10 mi
10:00 PM90 °FClear.12 mph8%29.86 "Hg10 mi
9:30 PMN/AClear.12 mphN/A29.83 "Hg10 mi
9:00 PM91 °FClear.12 mph8%29.83 "Hg10 mi
8:30 PMN/AClear.12 mphN/A29.83 "Hg10 mi
8:00 PM93 °FClear.10 mph8%29.80 "Hg10 mi
7:30 PMN/AClear.15 mphN/A29.80 "Hg10 mi
7:00 PM97 °FSunny.14 mph8%29.77 "Hg10 mi
5:30 PMN/ASunny.16 mphN/A29.77 "Hg10 mi
5:00 PM100 °FSunny.15 mph8%29.77 "Hg10 mi
4:30 PMN/ASunny.16 mphN/A29.77 "Hg10 mi
4:00 PM100 °FSunny.16 mph8%29.77 "Hg10 mi
3:30 PMN/ASunny.17 mphN/A29.77 "Hg10 mi
3:00 PM99 °FSunny.21 mph7%29.80 "Hg10 mi
2:30 PMN/ASunny.20 mphN/A29.80 "Hg10 mi
2:00 PM97 °FSunny.16 mph8%29.83 "Hg10 mi
1:30 PMN/ASunny.14 mphN/A29.83 "Hg10 mi
1:00 PM95 °FSunny.15 mph10%29.86 "Hg10 mi
Weather by CustomWeather, © 2015

See weather overviewHow to use our weather pages